Flag for Germany Weather past 2 weeks in Erftstadt, North Rhine-Westphalia, Germany

Now
43 °F

Passing clouds.


Feels Like: 39 °F
Forecast: 34 / 62 °F
Wind: 7 mph from Northwest

Location: Noervenich


UV Index: 0 (Low)

Visibility: N/A


Pressure: 30.01 "Hg

Humidity: 76%

Dew point: 36 °F

Location of ErftstadtLocation

Historic Weather in Erftstadt

°F

Erftstadt temperature yesterday

Maximum temperature yesterday: 55 °F (at 12:20 AM)
Minimum temperature yesterday: 43 °F (at 7:20 AM)
Average temperature yesterday: 49 °F

Past Weeks' High & Low Weather Summary

 TemperatureHumidityPressure
High72 °F (Apr 7, 4:20 PM)100% (Apr 5, 6:20 AM)30.45 "Hg (Apr 5, 6:20 AM)
Low32 °F (Apr 16, 5:20 AM)26% (Apr 17, 4:20 PM)29.68 "Hg (Apr 3, 10:20 PM)
Average52 °F69%30.08 "Hg
* Reported Apr 3 10:20 PM — Apr 18 10:20 PM, Erftstadt, Weather by CustomWeather, © 2014

Note: Actual official high and low records may vary slightly from our data, if they occured in-between our weather recording intervals... More about our weather records

Advertising

Historic Weather Conditions — Data for Previous 24 hours

 ConditionsComfort  
Time TempWeatherWind HumidityBarometerVisibility
10:20 PM
Apr 18
45 °FPassing clouds.7 mph71%29.98 "HgN/A
9:20 PM46 °FScattered clouds.8 mph66%29.98 "HgN/A
8:20 PM48 °FScattered clouds.8 mph62%29.98 "HgN/A
7:20 PM52 °FCool.10 mph54%29.95 "HgN/A
6:20 PM54 °FCool.9 mph44%29.95 "HgN/A
5:20 PM54 °FCool.10 mph41%29.95 "HgN/A
4:20 PM52 °FCool.13 mph47%29.98 "HgN/A
3:20 PM52 °FCool.12 mph47%29.98 "HgN/A
2:20 PM52 °FCool.12 mph47%29.98 "HgN/A
1:20 PM50 °FCool.13 mph50%29.98 "HgN/A
12:20 PM50 °FCool.12 mph58%29.98 "HgN/A
11:20 AM48 °FScattered clouds.10 mph66%29.98 "HgN/A
10:20 AM46 °FBroken clouds.10 mph76%29.98 "HgN/A
9:20 AM45 °FBroken clouds.8 mph87%29.95 "HgN/A
8:20 AM45 °FScattered clouds.7 mph87%29.95 "HgN/A
7:20 AM43 °FPassing clouds.6 mph87%29.95 "HgN/A
6:20 AM45 °FPartly cloudy.8 mph87%29.92 "Hg6 mi
5:20 AM46 °FPartly cloudy.7 mph93%29.92 "Hg4 mi
4:20 AM46 °FDrizzle. Fog.6 mph93%29.92 "Hg3 mi
3:20 AM46 °FDrizzle. Fog.6 mph93%29.92 "Hg2 mi
2:20 AM48 °FRain. Partly cloudy.12 mph87%29.92 "Hg4 mi
1:20 AM52 °FPartly cloudy.9 mph67%29.92 "HgN/A
12:20 AM55 °FPartly cloudy.8 mph47%29.92 "HgN/A
Weather by CustomWeather, © 2014

See weather overview